Regional Weather Roundup
Issued by NWS

Home | Current Version | Previous Version | Graphics & Text | Print | Product List | Glossary On
Versions: 1 2 3 4 5 6 7 8 9 10 11 12 13 14 15 16 17 18 19 20 21 22 23 24 25 26 27 28 29 30 31 32 33 34 35 36 37 38 39 40 41 42 43 44 45 46 47 48 49 50
000
ASUS43 KTOP 291159
RWRKS

WEATHER ROUNDUP FOR KANSAS
NATIONAL WEATHER SERVICE GOODLAND KS
700 AM CDT TUE JUL 29 2014

NOTE:  "FAIR" INDICATES FEW OR NO CLOUDS BELOW 12,000 FEET WITH NO
SIGNIFICANT WEATHER AND/OR OBSTRUCTIONS TO VISIBILITY.

KSZ001>006-013>018-027>032-041>047-291300-
NORTHWEST KANSAS

CITY           SKY/WX    TMP DP  RH WIND       PRES   REMARKS
GOODLAND       CLEAR     59  58  96 S7        30.20S
6HR MIN TEMP:  59; 6HR MAX TEMP:  68;

HAYS           CLEAR     61  52  72 E8        30.20S
HILL CITY      CLEAR     60  55  83 E7        30.20S
6HR MIN TEMP:  59; 6HR MAX TEMP:  69;

RUSSELL        CLEAR     61  55  81 SE7       30.19R
6HR MIN TEMP:  59; 6HR MAX TEMP:  66;

$$

KSZ061>065-074>080-084>089-291300-
SOUTHWEST KANSAS

CITY           SKY/WX    TMP DP  RH WIND       PRES   REMARKS
DODGE CITY     CLEAR     62  55  77 S6        30.19F
6HR MIN TEMP:  61; 6HR MAX TEMP:  68;

ELKHART          N/A     63  60  90 S10         N/A
GARDEN CITY    MOCLDY    62  57  83 SE5       30.20R
6HR MIN TEMP:  61; 6HR MAX TEMP:  65;

GREAT BEND     CLEAR     63  54  72 SE7       30.19R
LIBERAL        CLOUDY    66  57  72 S6        30.22S
PRATT          CLEAR     63  54  72 E6        30.20S
$$

KSZ066>073-081>083-090>101-291300-
SOUTHEAST KANSAS

CITY           SKY/WX    TMP DP  RH WIND       PRES   REMARKS
CHANUTE        CLOUDY    65  60  84 CALM      30.18S
6HR MIN TEMP:  61; 6HR MAX TEMP:  68;

COFFEYVILLE    PTCLDY    62  60  93 N3        30.16S
6HR MIN TEMP:  62; 6HR MAX TEMP:  67;

HUTCHINSON     CLEAR     61  56  83 E3        30.19S
6HR MIN TEMP:  60; 6HR MAX TEMP:  68;

NEWTON         PTCLDY    63  54  72 SE6       30.22S
PARSONS        MOCLDY    62  59  90 CALM      30.18S
6HR MIN TEMP:  59; 6HR MAX TEMP:  67;

WICHITA INTL   PTCLDY    65  57  75 E7        30.18S
6HR MIN TEMP:  65; 6HR MAX TEMP:  73;

WICHITA JABRA  CLEAR     61  57  87 CALM      30.19R
6HR MIN TEMP:  60; 6HR MAX TEMP:  67;

WINFIELD       CLEAR     65  59  81 E5        30.19R
6HR MIN TEMP:  64; 6HR MAX TEMP:  71;

$$

KSZ007>012-019>026-033>040-048>060-102>105-291300-
NORTHEAST KANSAS

CITY           SKY/WX    TMP DP  RH WIND       PRES   REMARKS
CONCORDIA      MOCLDY    64  59  83 CALM      30.21R
6HR MIN TEMP:  63; 6HR MAX TEMP:  67; 6HR PCP: TRACE;

EMPORIA        CLOUDY    63  59  87 CALM      30.19R
6HR MIN TEMP:  60; 6HR MAX TEMP:  65;

LAWRENCE       PTCLDY    59  56  89 NW3       30.18S
6HR MIN TEMP:  55; 6HR MAX TEMP:  60;

MANHATTAN      CLOUDY    66  58  75 CALM      30.19R
6HR MIN TEMP:  63; 6HR MAX TEMP:  67;

OLATHE IND     CLEAR     59  57  93 NW3       30.19R
6HR MIN TEMP:  58; 6HR MAX TEMP:  64;

OLATHE EXE     CLEAR     61  58  90 CALM      30.18R
6HR MIN TEMP:  60; 6HR MAX TEMP:  68;

SALINA         MOCLDY    67  57  70 CALM      30.20S
6HR MIN TEMP:  64; 6HR MAX TEMP:  73;

TOPEKA BILLARD CLOUDY    63  59  87 CALM      30.19S
6HR MIN TEMP:  58; 6HR MAX TEMP:  65;

TOPEKA FORBES  CLOUDY    64  59  83 NW3       30.18S
6HR MIN TEMP:  58; 6HR MAX TEMP:  64; 6HR PCP: TRACE;

$$


USA.gov is the U.S. government's official web portal to all federal, state and local government web resources and services.